DW3384 Weather Reports


Display with metric or nautical units.
time (UTC)temp
F
wind
direction
speed
MPH
gust
MPH
rain 1hr
in
rain 24hr
in
rain mn
in
humidity
%
barometer
mb
20260504191515 89 286 5.0 16.0 0.00 0.00 0.00 13 995.6
20260504190011 88 202 4.0 11.0 0.00 0.00 0.00 15 995.8
20260504184513 87 260 7.0 14.0 0.00 0.00 0.00 15 996.0
20260504183004 87 284 6.0 15.0 0.00 0.00 0.00 17 996.4
20260504181609 86 298 9.0 16.0 0.00 0.00 0.00 17 996.6
20260504180056 84 317 7.0 14.0 0.00 0.00 0.00 18 997.0
20260504174553 84 323 5.0 16.0 0.00 0.00 0.00 19 997.2
20260504173050 82 296 7.0 15.0 0.00 0.00 0.00 21 997.5
20260504171546 81 287 6.0 11.0 0.00 0.00 0.00 23 997.6
20260504081541 64 201 6.0 19.0 0.00 0.00 0.00 46 1000.6
20260504044543 69 244 9.0 18.0 0.00 0.00 0.00 37 1002.4
20260504043046 70 171 8.0 18.0 0.00 0.00 0.00 36 1002.7
20260504041542 70 229 7.0 21.0 0.00 0.00 0.00 35 1002.8
20260504040042 71 253 9.0 18.0 0.00 0.00 0.00 34 1002.9
20260504034541 71 210 9.0 19.0 0.00 0.00 0.00 33 1002.9
20260504033040 72 175 9.0 16.0 0.00 0.00 0.00 33 1003.0
20260504031540 72 213 6.0 17.0 0.00 0.00 0.00 32 1002.9
20260504030039 73 198 8.0 16.0 0.00 0.00 0.00 31 1002.9
20260504024539 73 195 8.0 15.0 0.00 0.00 0.00 30 1002.9
20260504023039 74 186 8.0 21.0 0.00 0.00 0.00 28 1002.8
20260504021537 75 199 7.0 17.0 0.00 0.00 0.00 28 1002.7
20260504020057 76 174 7.0 15.0 0.00 0.00 0.00 27 1002.6
20260504014553 76 180 7.0 13.0 0.00 0.00 0.00 26 1002.5
20260504013044 77 219 6.0 15.0 0.00 0.00 0.00 24 1002.5
20260504011536 79 207 6.0 13.0 0.00 0.00 0.00 24 1002.4
20260504010040 79 214 8.0 19.0 0.00 0.00 0.00 24 1002.5
20260504004543 80 205 8.0 17.0 0.00 0.00 0.00 23 1002.5
20260504003034 80 181 9.0 18.0 0.00 0.00 0.00 23 1002.6
20260504001541 82 177 10.0 23.0 0.00 0.00 0.00 22 1002.6
20260504000032 82 232 8.0 16.0 0.00 0.00 0.00 20 1002.7
20260503234529 82 180 7.0 19.0 0.00 0.00 0.00 19 1002.9
20260503233027 83 219 13.0 21.0 0.00 0.00 0.00 19 1003.1
20260503231526 82 200 8.0 24.0 0.00 0.00 0.00 20 1003.3
20260503230025 82 226 9.0 20.0 0.00 0.00 0.00 20 1003.5
20260503224522 81 230 6.0 18.0 0.00 0.00 0.00 22 1003.7
20260503223022 82 226 9.0 16.0 0.00 0.00 0.00 20 1003.9
20260503221519 81 188 10.0 20.0 0.00 0.00 0.00 20 1004.1
20260503220017 82 216 11.0 20.0 0.00 0.00 0.00 20 1004.5
20260503214518 83 232 9.0 21.0 0.00 0.00 0.00 20 1004.7
20260503213012 82 209 10.0 22.0 0.00 0.00 0.00 20 1004.9
20260503211510 82 184 9.0 23.0 0.00 0.00 0.00 21 1005.4
20260503210007 82 225 10.0 25.0 0.00 0.00 0.00 21 1005.9
20260503204503 81 227 7.0 23.0 0.00 0.00 0.00 20 1006.2
20260503203003 81 267 10.0 23.0 0.00 0.00 0.00 21 1006.7
20260503201558 81 235 8.0 21.0 0.00 0.00 0.00 22 1006.8
20260503200056 81 236 11.0 22.0 0.00 0.00 0.00 22 1007.1
20260503194554 81 250 8.0 19.0 0.00 0.00 0.00 22 1007.4
20260503193049 79 242 12.0 21.0 0.00 0.00 0.00 22 1007.8